Home   Weather   Westport   Past weeks
Flag for USA

Past Weather in Westport, Connecticut, USA — Yesterday and Last 2 Weeks

Now
52 °F

Passing clouds.


Feels Like: 47 °F
Forecast: 58 / 39 °F
Wind: 16 mph from Northwest

Location: Sikorsky Memorial Airport

Current Time: Oct 18, 2019 at 8:22:04 pm

Latest Report: Oct 18, 2019 at 6:52 pm


Visibility: 10 mi

Pressure: 29.90 "Hg

Humidity: 59%

Dew Point: 38 °F

Location of WestportLocation

Past Weather in Westport — Graph

°F

Westport Temperature Yesterday

Maximum temperature yesterday: 64 °F (at 12:15 am)
Minimum temperature yesterday: 51 °F (at 3:52 am)
Average temperature yesterday: 55 °F

High & Low Weather Summary for the Past Weeks

 TemperatureHumidityPressure
High77 °F (Oct 7, 3:52 pm)97% (Oct 3, 10:37 pm)30.47 "Hg (Oct 3, 10:37 pm)
Low43 °F (Oct 5, 4:52 am)28% (Oct 5, 5:52 pm)29.01 "Hg (Oct 17, 12:31 am)
Average59 °F68%30.02 "Hg
* Reported Oct 3 6:52 pm — Oct 18 6:52 pm, Westport. Weather by CustomWeather, © 2019

Note: Actual official high and low records may vary slightly from our data, if they occured in-between our weather recording intervals... More about our weather records

Advertising

Westport Weather History for the Previous 24 Hours

Scroll right to see more
 ConditionsComfort  
Time TempWeatherWind HumidityBarometerVisibility
6:52 pm
Fri, Oct 18
52 °FPassing clouds.16 mph59%29.90 "Hg10 mi
5:57 pm54 °FScattered clouds.15 mph57%29.88 "Hg10 mi
4:52 pm57 °FPartly sunny.9 mph53%29.85 "Hg10 mi
3:52 pm58 °FOvercast.9 mph51%29.83 "Hg10 mi
2:52 pm59 °FPartly sunny.8 mph49%29.81 "Hg10 mi
1:52 pm60 °FPartly sunny.15 mph47%29.78 "Hg10 mi
12:52 pm61 °FScattered clouds.16 mph46%29.77 "Hg10 mi
11:52 am59 °FSunny.13 mph49%29.78 "Hg10 mi
10:52 am56 °FPassing clouds.15 mph53%29.78 "Hg10 mi
9:52 am54 °FSunny.9 mph57%29.78 "Hg10 mi
8:52 am52 °FSunny.9 mph64%29.76 "Hg10 mi
7:52 am50 °FSunny.6 mph68%29.74 "Hg10 mi
6:52 am48 °FPassing clouds.5 mph74%29.71 "Hg10 mi
5:52 am50 °FOvercast.6 mph68%29.68 "Hg10 mi
4:52 am51 °FPassing clouds.8 mph66%29.65 "Hg10 mi
3:52 am52 °FOvercast.9 mph66%29.62 "Hg10 mi
2:52 am52 °FPassing clouds.8 mph64%29.61 "Hg10 mi
1:52 am53 °FPassing clouds.13 mph61%29.59 "Hg10 mi
12:52 am53 °FOvercast.14 mph61%29.57 "Hg10 mi
11:52 pm
Thu, Oct 17
53 °FPassing clouds.16 mph64%29.55 "Hg10 mi
10:52 pm54 °FOvercast.14 mph62%29.52 "Hg10 mi
9:52 pm54 °FOvercast.15 mph62%29.49 "Hg10 mi
8:52 pm55 °FOvercast.16 mph59%29.45 "Hg10 mi
Weather by CustomWeather, © 2019

See weather overview